Terminal Aerodrome Forecast
Issued by NWS

Home | Current Version | Previous Version | Graphics & Text | Print | Product List | Glossary On
Versions: 1 2 3 4 5 6 7 8 9 10 11 12 13 14 15 16 17 18 19 20 21 22 23 24 25 26 27 28 29 30 31 32 33
000
FTUS43 KLOT 310300 AAA
TAFMDW
TAF AMD
KMDW 310300Z 3103/3124 12004KT P6SM SKC
     FM310800 22003KT P6SM FEW070
     FM311400 25007KT P6SM SCT050
     FM311900 25011KT P6SM VCSH BKN060=

USA.gov is the U.S. government's official web portal to all federal, state and local government web resources and services.